Wind_Speed
29 26 25 24 25 25 22 20 19 19 19 16 16 17 17 15 14 14 14 12 15 15 14 13 13 13 14 15 15 16 17 18 18 19 20 20 20 21 21 20 19 20 20
29 26 27 26 26 24 21 20 19 22 20 17 18 19 18 15 14 14 14 14 14 16 15 14 13 13 13 14 15 15 16 17 17 18 19 19 20 20 20 19 19 19 19
32 28 28 28 26 24 22 21 22 21 22 19 19 19 18 16 15 13 13 13 15 16 15 15 15 13 12 13 14 14 15 15 15 17 17 18 19 19 19 19 19 19 19
35 31 29 28 27 26 27 26 26 25 23 22 21 20 18 17 15 13 12 12 13 15 14 15 15 14 13 12 13 13 14 15 15 17 17 17 18 18 19 18 18 18 18
37 34 31 30 30 31 30 29 28 27 26 25 23 18 15 16 15 14 12 11 11 12 13 14 14 14 14 13 13 13 14 13 14 16 16 17 18 18 18 18 18 19 19
37 35 33 32 32 32 31 30 31 27 27 26 24 21 16 13 13 12 12 12 12 11 11 12 12 13 14 14 13 13 13 12 13 14 15 16 16 17 17 18 18 18 18
39 38 37 34 34 34 34 32 30 29 28 28 28 18 14 17 16 13 13 12 14 13 12 12 11 11 12 12 13 13 12 11 12 13 13 14 15 15 15 16 17 17 18
42 40 39 36 36 35 32 33 34 30 27 34 18 17 3 5 13 17 18 15 12 12 13 14 13 11 6 5 7 9 10 10 11 11 12 13 14 15 15 15 16 16 17
39 39 38 38 38 36 36 37 35 36 29 37 33 9 3 4 9 12 21 21 20 18 14 15 13 10 6 3 2 5 9 9 11 10 11 12 13 13 14 15 15 15 16
38 37 36 37 37 35 36 37 35 37 32 31 32 12 5 15 3 3 17 20 20 22 20 18 15 11 7 4 1 4 9 9 11 11 10 11 12 12 13 13 13 14 15
37 37 36 35 38 37 35 36 36 34 33 32 25 14 11 9 10 5 3 9 18 21 20 20 18 15 11 6 3 2 7 8 9 10 9 10 11 11 12 12 12 13 15
36 35 34 32 34 34 32 33 33 32 29 30 30 22 17 7 7 5 3 5 12 19 19 19 19 15 12 8 4 1 4 7 8 9 8 9 10 12 13 13 13 13 14
36 37 35 29 30 30 28 29 28 26 25 26 23 19 18 18 8 9 8 7 5 7 11 20 20 19 15 11 6 1 4 6 8 7 8 8 10 10 12 12 12 13 15
36 37 34 30 29 28 27 26 24 20 16 17 17 15 14 11 8 11 9 16 3 2 6 9 20 21 18 13 6 2 3 6 5 3 4 7 8 8 11 11 11 12 13
34 37 35 30 27 25 25 26 21 17 13 13 15 14 11 10 6 6 9 21 14 4 3 10 9 21 20 13 7 4 2 4 2 2 3 6 6 7 9 10 11 12 12
32 34 35 32 29 27 27 24 21 15 12 13 16 13 8 7 10 10 13 17 13 9 3 6 6 23 18 12 8 5 1 1 1 2 4 3 3 6 9 11 10 9 12
33 33 36 36 34 33 31 26 22 26 26 20 16 15 12 14 12 16 14 16 15 11 8 7 15 17 15 11 13 8 6 5 5 3 1 2 7 11 11 6 7 10 14
31 32 34 37 37 35 32 30 34 29 27 24 22 17 19 19 17 16 16 16 14 12 11 12 14 11 9 9 11 12 9 5 3 2 6 10 13 7 6 8 12 14 13
32 33 36 38 39 38 37 37 35 33 34 33 27 25 26 21 21 19 18 17 14 11 11 10 9 9 8 11 11 8 5 3 6 10 13 12 8 7 11 14 14 13 15
34 36 37 38 37 37 36 35 32 31 30 28 29 28 21 24 23 19 15 13 14 12 11 12 9 8 8 4 5 2 5 10 13 15 10 8 13 17 16 13 11 15 14
35 35 35 32 32 35 35 35 35 34 32 27 25 24 24 21 19 16 14 14 14 14 12 12 9 5 5 3 1 2 4 10 14 7 12 16 21 19 17 16 17 16 19
29 32 33 35 34 29 32 36 35 32 29 28 28 27 23 21 18 15 13 12 11 11 9 7 6 4 5 3 1 4 7 6 4 3 19 23 16 18 16 19 16 18 22
33 33 32 33 30 27 34 34 32 32 28 34 32 28 23 18 15 15 12 9 8 5 6 6 6 5 4 3 4 6 8 6 7 16 17 15 18 14 19 16 28 26 21
30 31 32 32 31 32 34 32 30 30 34 31 28 24 17 16 14 13 10 8 5 4 4 4 4 4 3 1 3 8 10 12 15 16 12 9 14 17 21 31 24 16 10
28 30 32 35 35 32 35 35 32 32 30 27 20 17 18 16 15 13 12 10 8 7 5 5 6 5 4 3 6 6 9 11 11 12 11 9 10 24 22 19 9 6 7
33 32 31 31 32 34 35 34 33 29 25 23 21 19 16 16 15 11 11 11 11 11 10 8 8 6 7 6 3 3 5 6 6 5 1 17 18 16 9 12 5 20 24
Wind_Direction
194 192 187 182 173 169 172 168 165 155 158 164 150 153 142 130 121 114 109 109 106 105 107 103 88 79 73 70 67 64 61 58 55 54 51 48 47 45 43 38 34 34 35
198 194 189 182 177 178 175 171 171 167 161 168 151 151 145 137 131 123 117 109 112 109 110 108 96 86 78 75 71 68 64 62 57 56 54 50 50 48 44 39 36 36 30
203 196 192 188 185 184 181 174 169 165 161 167 156 154 150 145 140 134 128 123 116 117 114 105 101 95 86 80 74 70 68 64 59 57 54 52 51 48 44 40 36 34 30
205 203 198 196 189 187 180 178 172 166 160 160 153 152 152 152 150 146 139 133 128 125 116 109 104 96 91 84 77 71 69 64 60 59 55 52 49 46 43 40 36 35 33
205 210 206 200 195 189 189 182 177 174 168 162 156 157 158 158 157 156 154 151 142 134 129 118 111 101 92 86 80 72 68 64 61 60 56 52 47 45 41 39 35 31 29
205 206 204 196 193 190 188 186 177 177 173 166 160 157 161 169 165 164 166 162 158 150 145 137 131 117 99 87 82 76 71 66 61 60 56 53 49 45 39 36 33 27 26
207 205 203 199 198 196 192 188 181 176 174 170 154 148 158 174 177 179 171 167 164 164 160 157 149 141 117 93 80 75 73 67 62 60 57 54 51 46 40 36 29 24 20
208 205 207 205 204 203 202 195 187 179 179 174 159 132 141 182 192 186 181 180 173 172 169 166 166 169 160 88 77 76 77 77 67 65 59 53 50 45 37 32 29 23 18
205 206 207 208 206 208 203 198 196 186 172 177 173 148 142 189 143 190 188 185 181 182 183 175 180 189 188 139 82 55 50 83 66 62 60 53 48 42 36 30 26 22 17
204 209 209 207 210 208 209 204 200 196 183 186 186 195 161 139 159 136 195 190 186 182 180 179 187 199 197 186 129 52 39 61 68 57 59 53 49 42 34 26 23 20 16
208 211 213 209 211 210 212 211 206 204 202 191 187 184 165 162 149 139 158 180 189 189 191 188 189 192 193 193 164 38 31 39 60 62 61 51 44 39 27 20 19 20 16
206 211 216 212 213 213 213 214 212 212 210 207 197 203 191 168 179 147 119 154 174 189 188 193 192 200 196 187 162 1 26 29 40 44 52 49 37 28 21 15 12 15 10
200 207 212 208 211 216 214 213 209 208 212 216 215 213 208 208 195 177 133 143 151 164 186 194 195 200 195 184 181 256 17 34 28 30 29 32 21 17 14 13 10 7 1
198 205 208 209 207 207 205 204 201 197 197 204 212 203 182 172 183 177 150 144 83 118 178 179 200 199 198 190 195 209 7 30 30 29 5 18 13 9 3 360 2 1 354
198 205 207 202 196 193 188 186 184 177 168 158 163 164 166 144 157 163 167 185 158 160 186 179 175 194 189 189 200 226 338 22 23 10 29 14 7 354 349 351 349 347 345
198 204 202 198 189 183 180 180 174 181 187 174 160 165 183 196 217 226 191 193 194 150 147 174 174 179 182 182 199 206 189 358 35 57 37 50 10 344 337 332 334 336 335
203 204 200 194 192 187 189 193 201 178 178 188 199 202 206 214 206 199 186 200 199 177 127 121 144 171 174 188 185 190 170 166 136 158 160 298 310 316 333 342 342 330 328
202 201 193 190 190 191 194 194 185 191 198 198 198 204 214 203 201 194 188 190 184 176 161 145 153 159 167 184 176 164 163 158 189 280 307 309 316 331 326 312 312 316 325
202 197 196 196 196 198 196 197 199 200 204 206 205 197 199 202 206 193 188 187 171 172 175 173 158 160 148 157 155 160 187 227 287 308 313 314 318 320 317 314 313 316 322
202 196 199 203 200 193 192 195 197 196 196 193 193 194 203 200 198 192 189 185 171 165 167 162 146 159 163 139 182 201 287 299 311 321 326 325 321 320 320 328 327 321 322
202 198 193 191 190 190 195 196 193 191 184 185 192 197 195 199 193 194 190 177 172 160 160 158 160 170 183 179 177 321 319 327 330 301 325 326 329 333 339 334 326 324 318
195 188 186 190 189 184 191 196 193 188 190 189 186 180 173 178 171 168 177 184 201 191 174 168 178 193 203 190 269 330 338 354 329 301 336 325 333 331 329 323 323 316 310
191 183 185 189 182 186 188 196 194 190 185 179 175 171 167 171 194 193 185 189 200 214 216 216 203 217 215 218 303 324 329 324 288 316 320 303 324 316 319 312 313 308 309
188 182 181 182 183 189 187 187 185 181 180 181 177 172 182 184 188 189 187 179 170 174 200 211 204 200 226 270 320 322 317 312 306 311 312 278 310 311 315 317 320 305 306
185 184 184 184 182 179 179 179 177 179 175 173 179 192 192 187 177 183 194 181 177 182 190 203 210 202 211 251 289 289 303 310 304 309 312 281 299 318 315 312 303 288 288
186 183 177 181 180 167 180 180 180 174 164 172 182 180 187 184 177 178 180 189 185 193 197 197 204 223 262 266 255 280 309 307 330 326 198 324 316 334 317 308 234 296 299
Height
798 800 803 805 808 810 814 816 820 823 825 826 827 830 832 833 835 837 839 840 842 844 845 846 847 848 848 847 845 845 844 842 842 839 837 836 835 833 833 832 830 829 827
797 799 802 804 807 809 812 815 818 821 824 826 827 829 831 834 835 837 839 841 842 844 846 847 847 849 850 848 847 846 845 844 844 841 839 838 836 835 834 834 832 830 828
795 797 799 802 805 808 811 814 817 820 822 824 826 829 831 834 836 838 840 841 843 844 845 846 847 849 851 850 849 849 847 846 845 842 841 840 838 836 836 835 835 832 830
791 795 797 799 803 807 809 811 814 817 820 822 825 828 830 833 836 839 841 842 843 844 846 847 848 849 851 851 851 850 848 848 847 844 843 842 840 839 837 837 836 834 831
786 790 794 798 800 803 806 807 811 815 818 821 825 828 831 832 835 838 841 843 844 845 846 847 848 849 851 852 852 852 850 851 849 846 844 843 842 841 840 839 838 836 833
780 785 790 795 797 800 804 806 807 812 816 819 823 828 831 834 835 837 840 843 845 846 847 847 849 851 851 852 852 852 851 852 850 847 846 844 843 842 842 841 839 838 835
775 779 784 790 793 796 798 803 806 808 814 818 822 828 833 835 836 837 839 842 844 846 847 848 849 850 852 852 851 852 852 852 851 848 847 845 844 843 842 840 840 839 838
768 773 778 784 789 793 797 800 802 804 810 813 817 824 834 838 837 838 839 841 842 844 846 848 849 850 851 850 850 851 851 851 850 848 847 846 844 843 843 842 840 839 838
765 769 773 778 783 788 791 794 798 799 802 809 811 812 827 828 831 836 838 839 840 843 845 847 848 848 848 849 850 850 849 849 849 849 847 846 845 844 843 842 841 840 839
761 766 769 773 779 784 788 792 796 798 799 803 808 808 810 810 824 835 837 838 839 841 843 845 847 847 847 849 850 850 850 848 848 848 847 846 845 844 842 843 841 840 838
755 761 765 769 773 778 783 789 792 797 797 799 803 805 810 812 813 818 830 834 838 839 841 843 845 846 847 847 848 849 849 849 847 846 846 847 845 843 843 842 840 838 837
750 757 762 765 770 774 779 784 789 793 797 799 800 802 805 809 811 813 821 829 833 837 840 842 845 844 845 846 848 849 849 848 847 847 846 846 845 844 843 842 840 837 836
742 748 755 760 765 770 776 781 787 788 794 797 800 801 803 806 808 810 813 823 828 834 839 840 842 843 844 844 846 848 848 847 846 845 845 845 846 845 842 840 838 837 836
734 741 750 756 761 765 771 777 781 786 791 793 797 801 802 804 808 809 810 817 829 830 834 835 838 840 842 842 843 845 846 846 845 844 843 844 844 844 842 840 838 835 835
731 737 744 751 757 763 768 774 779 783 790 792 797 801 803 803 808 809 810 815 818 829 831 832 833 837 840 841 842 842 843 844 844 844 842 842 843 843 842 841 838 836 834
728 734 741 747 753 760 766 771 775 779 783 792 797 801 804 804 809 810 812 815 817 817 827 828 829 832 837 838 840 840 841 843 841 841 841 841 840 840 839 837 835 834 833
724 731 736 742 749 755 762 766 773 779 785 792 793 798 802 806 805 811 808 815 817 817 821 827 829 833 836 838 839 840 841 841 840 838 839 839 838 837 836 833 831 831 829
721 727 733 739 745 750 754 760 766 774 782 787 790 794 798 802 805 808 809 813 814 814 821 824 828 832 834 836 836 837 838 839 838 837 837 836 835 834 832 831 830 827 825
719 724 729 734 739 744 749 755 761 768 775 779 785 790 796 799 804 806 808 813 811 815 817 821 824 828 832 833 833 833 834 835 835 834 832 832 831 830 829 827 825 825 821
716 720 724 729 735 740 746 751 757 765 772 778 784 789 793 798 802 805 809 810 810 814 819 821 821 825 828 830 830 830 831 831 831 830 829 828 828 826 824 822 821 819 817
710 715 721 728 734 737 742 748 753 760 767 773 780 785 791 796 800 804 807 810 812 813 816 817 820 823 825 827 827 828 829 827 826 825 823 823 821 820 819 819 815 813 812
709 712 719 724 729 735 741 747 752 758 764 771 777 783 788 792 796 801 805 808 812 812 812 815 819 821 823 823 824 826 826 825 824 821 821 819 818 817 817 816 812 810 807
705 707 716 721 727 735 739 744 750 756 763 769 774 779 785 790 795 800 803 806 808 808 809 813 815 818 820 821 823 824 825 823 824 822 822 818 815 815 815 812 808 804 801
703 705 711 718 724 731 738 742 750 756 762 768 773 779 785 789 794 798 802 804 804 806 810 811 812 816 818 817 820 821 822 821 820 820 820 816 813 811 809 805 801 799 798
700 703 708 714 721 731 737 741 748 756 760 767 775 779 783 788 791 794 799 803 804 805 809 811 813 814 815 817 817 818 819 819 818 817 814 813 810 804 803 800 798 795 795
693 699 706 715 722 729 736 741 748 754 760 766 771 777 782 786 790 792 799 802 801 803 806 809 810 813 813 814 814 814 814 816 817 813 814 813 808 806 798 795 795 795 791